IST,Max TemperatureF,Mean TemperatureF,Min TemperatureF,Max Dew PointF,MeanDew PointF,Min DewpointF,Max Humidity, Mean Humidity, Min Humidity, Max Sea Level PressureIn, Mean Sea Level PressureIn, Min Sea Level PressureIn, Max VisibilityMiles, Mean VisibilityMiles, Min VisibilityMiles, Max Wind SpeedMPH, Mean Wind SpeedMPH, Max Gust SpeedMPH,PrecipitationIn, CloudCover, Events, WindDirDegrees
2012-12-1,71,60,48,50,44,39,88,63,33,30.06,29.98,29.95,2,2,1,9,5,,0.00,,,268
2012-12-2,73,60,46,45,41,36,82,55,25,30.09,30.02,29.98,2,1,1,6,2,,0.00,2,,266
2012-12-3,73,60,48,45,41,37,76,56,27,30.12,30.04,30.01,2,1,0,10,2,,0.00,,Fog,273
2012-12-4,73,58,44,45,42,39,87,60,31,30.06,30.01,29.95,2,1,1,13,3,,0.00,1,,261
2012-12-5,73,58,44,43,40,37,81,53,27,30.04,30.00,29.95,2,1,1,13,5,,0.00,3,,264
2012-12-6,77,62,46,43,40,37,81,50,24,30.06,30.00,29.95,2,1,1,12,4,,0.00,1,,264
2012-12-7,77,62,48,43,40,37,66,49,25,30.01,29.95,29.89,2,2,1,12,6,,0.00,3,,263
2012-12-8,78,64,50,46,41,36,66,47,23,30.01,29.92,29.86,2,2,1,9,4,,0.00,2,,263
2012-12-9,78,64,50,50,45,41,82,56,28,29.98,29.89,29.83,2,1,0,7,1,,0.00,1,,288
2012-12-10,78,66,55,52,48,43,88,55,28,29.95,29.88,29.83,2,1,0,8,3,,0.00,2,Fog,125
2012-12-11,66,60,53,57,51,45,88,71,49,29.95,29.91,29.86,2,1,0,13,6,,0.00,4,Thunderstorm,77
2012-12-12,71,60,50,54,50,46,100,73,43,30.01,29.95,29.92,2,1,0,6,2,,0.00,5,Fog,34
2012-12-13,73,65,57,52,50,45,82,59,36,30.01,29.93,29.86,2,1,1,10,4,,0.00,5,,128
2012-12-14,69,63,57,55,52,50,88,67,49,30.09,30.02,29.92,2,2,1,16,9,23,0.00,4,,73
2012-12-15,73,65,57,57,53,50,77,68,50,30.15,30.08,30.04,2,1,1,8,4,,0.00,5,,50
2012-12-16,71,65,59,59,56,52,94,78,60,30.18,30.12,30.06,1,1,0,10,4,,0.00,3,Fog,301
2012-12-17,71,60,50,54,47,41,94,66,35,30.15,30.09,30.04,3,2,1,14,8,23,0.00,1,,283
2012-12-18,73,60,48,46,44,41,87,57,31,30.12,30.06,30.01,3,2,1,15,8,21,0.00,1,,274
2012-12-19,71,60,48,46,42,36,87,58,27,30.06,30.00,29.95,3,2,2,147,12,23,0.00,,,275
2012-12-20,69,56,44,46,42,39,81,61,35,30.01,29.95,29.92,4,2,1,16,8,,0.00,1,,272
2012-12-21,69,56,44,45,42,37,87,62,31,30.06,29.99,29.95,2,1,1,10,4,,0.00,1,,265
2012-12-22,69,58,46,48,44,39,81,63,38,30.09,30.02,29.98,2,1,0,9,2,,0.00,,Fog,293
2012-12-23,66,55,44,52,49,45,100,88,52,30.12,30.05,30.01,1,0,0,8,5,,0.00,,Fog,102
2012-12-24,60,53,46,52,49,46,100,93,67,30.09,30.02,29.95,1,0,0,7,2,,0.00,,Fog,270
2012-12-25,59,50,42,54,48,43,100,95,72,30.06,30.00,29.95,1,0,0,6,3,,0.00,,Fog,286
2012-12-26,60,53,46,52,48,46,100,90,59,30.06,30.00,29.95,1,1,0,8,5,,0.00,3,Fog,274
2012-12-27,62,54,46,52,48,46,100,91,59,30.06,29.98,29.92,1,0,0,10,6,,0.00,3,Fog,139
2012-12-28,62,52,42,52,46,43,100,85,48,29.95,29.89,29.83,1,0,0,12,7,,0.00,2,Fog,121
2012-12-29,69,58,48,55,49,39,100,81,33,30.01,29.94,29.89,2,1,0,8,5,,0.00,3,Fog,148
2012-12-30,60,52,44,52,48,45,100,88,55,30.04,29.98,29.95,2,1,0,9,5,,0.00,2,Fog,283
2012-12-31,55,48,42,50,46,43,100,97,82,30.04,29.96,29.89,1,1,0,9,6,,0.00,1,Fog,285